When you browse on this site, cookies collect data to enhance your experience and personalize the content and advertising you see.
Visit our Privacy Policy to learn more. By continuing to use the site, you agree to this use of cookies and data.
  • In Latvia
  • List of Countries
  • For 7 days
  • Water Temperature
  • Satellite Maps
  • Weather Map
  • Weather Widgets
  • user-avatar
    Login

    Hourly Weather Melbourne

    Today, 25 March, Monday

    Time Temperature Precipitation Wind Pressure Humidity
    00:00 +23°C° 1 mm 7 mps 749 mmHg 66%
    01:00 +23°C° 1 mm 7 mps 749 mmHg 68%
    02:00 +22°C° 0.1 mm 7 mps 749 mmHg 65%
    03:00 +21°C° 0.1 mm 6 mps 749 mmHg 62%
    04:00 +19°C° 0 mm 5 mps 749 mmHg 60%
    05:00 +19°C° 0 mm 5 mps 750 mmHg 58%
    06:00 +17°C° 0 mm 6 mps 751 mmHg 56%
    07:00 +17°C° 0 mm 6 mps 751 mmHg 55%
    08:00 +17°C° 0 mm 7 mps 752 mmHg 49%
    09:00 +17°C° 0 mm 8 mps 752 mmHg 44%
    10:00 +17°C° 0 mm 8 mps 753 mmHg 39%
    11:00 +16°C° 0 mm 8 mps 753 mmHg 39%
    12:00 +16°C° 0 mm 8 mps 754 mmHg 38%
    13:00 +16°C° 0 mm 8 mps 755 mmHg 38%
    14:00 +16°C° 0 mm 8 mps 755 mmHg 37%
    15:00 +16°C° 0 mm 8 mps 755 mmHg 35%
    16:00 +16°C° 0 mm 7 mps 755 mmHg 34%
    17:00 +15°C° 0 mm 7 mps 756 mmHg 34%
    18:00 +15°C° 0 mm 6 mps 756 mmHg 35%
    19:00 +14°C° 0 mm 6 mps 757 mmHg 35%
    20:00 +14°C° 0 mm 6 mps 757 mmHg 37%
    21:00 +14°C° 0 mm 6 mps 758 mmHg 39%
    22:00 +13°C° 0 mm 6 mps 759 mmHg 41%
    23:00 +13°C° 0 mm 6 mps 759 mmHg 43%

    Tomorrow, 26 March, Tuesday

    Time Temperature Precipitation Wind Pressure Humidity
    00:00 +13°C° 0 mm 6 mps 759 mmHg 45%
    01:00 +13°C° 0 mm 6 mps 759 mmHg 48%
    02:00 +13°C° 0 mm 6 mps 759 mmHg 51%
    03:00 +11°C° 0 mm 6 mps 759 mmHg 54%
    04:00 +11°C° 0 mm 6 mps 760 mmHg 57%
    05:00 +11°C° 0 mm 6 mps 760 mmHg 59%
    06:00 +11°C° 0 mm 6 mps 761 mmHg 60%
    07:00 +12°C° 0 mm 5 mps 761 mmHg 62%
    08:00 +13°C° 0 mm 6 mps 762 mmHg 58%
    09:00 +14°C° 0 mm 6 mps 762 mmHg 54%
    10:00 +16°C° 0 mm 6 mps 763 mmHg 50%
    11:00 +17°C° 0 mm 6 mps 763 mmHg 47%
    12:00 +19°C° 0 mm 5 mps 763 mmHg 44%
    13:00 +19°C° 0 mm 5 mps 763 mmHg 41%
    14:00 +20°C° 0 mm 4 mps 763 mmHg 41%
    15:00 +20°C° 0 mm 4 mps 763 mmHg 40%
    16:00 +20°C° 0 mm 4 mps 763 mmHg 40%
    17:00 +19°C° 0 mm 3 mps 764 mmHg 45%
    18:00 +18°C° 0 mm 3 mps 764 mmHg 49%
    19:00 +17°C° 0 mm 2 mps 764 mmHg 54%
    20:00 +16°C° 0 mm 2 mps 765 mmHg 57%
    21:00 +16°C° 0 mm 2 mps 766 mmHg 61%
    22:00 +15°C° 0 mm 2 mps 766 mmHg 64%
    23:00 +15°C° 0 mm 1 mps 766 mmHg 67%

    Day after tomorrow, 27 March, Wednesday

    Time Temperature Precipitation Wind Pressure Humidity
    00:00 +14°C° 0 mm 1 mps 766 mmHg 70%
    01:00 +13°C° 0 mm 1 mps 766 mmHg 74%
    02:00 +13°C° 0 mm 1 mps 766 mmHg 75%
    03:00 +13°C° 0 mm 1 mps 766 mmHg 77%
    04:00 +12°C° 0 mm 1 mps 766 mmHg 79%
    05:00 +12°C° 0 mm 1 mps 766 mmHg 79%
    06:00 +12°C° 0 mm 1 mps 766 mmHg 80%
    07:00 +12°C° 0 mm 1 mps 767 mmHg 80%
    08:00 +14°C° 0 mm 1 mps 767 mmHg 71%
    09:00 +16°C° 0 mm 0 mps 767 mmHg 61%
    10:00 +18°C° 0 mm 0 mps 767 mmHg 51%
    11:00 +22°C° 0 mm 1 mps 766 mmHg 45%
    12:00 +23°C° 0 mm 1 mps 766 mmHg 39%
    13:00 +25°C° 0 mm 1 mps 765 mmHg 33%
    14:00 +25°C° 0 mm 1 mps 764 mmHg 33%
    15:00 +25°C° 0 mm 2 mps 764 mmHg 33%
    16:00 +25°C° 0 mm 3 mps 763 mmHg 33%
    17:00 +22°C° 0 mm 3 mps 763 mmHg 40%
    18:00 +20°C° 0 mm 3 mps 763 mmHg 46%
    19:00 +19°C° 0 mm 3 mps 764 mmHg 53%
    20:00 +18°C° 0 mm 2 mps 764 mmHg 57%
    21:00 +17°C° 0 mm 2 mps 764 mmHg 62%
    22:00 +16°C° 0 mm 2 mps 764 mmHg 66%
    23:00 +16°C° 0 mm 1 mps 763 mmHg 65%

    28 March, Thursday

    Time Temperature Precipitation Wind Pressure Humidity
    00:00 +16°C° 0 mm 1 mps 763 mmHg 64%
    01:00 +16°C° 0 mm 1 mps 762 mmHg 63%
    02:00 +16°C° 0 mm 1 mps 762 mmHg 60%
    03:00 +16°C° 0 mm 1 mps 762 mmHg 56%
    04:00 +16°C° 0 mm 2 mps 761 mmHg 53%
    05:00 +16°C° 0 mm 2 mps 761 mmHg 52%
    06:00 +16°C° 0 mm 2 mps 761 mmHg 51%
    07:00 +14°C° 0 mm 3 mps 761 mmHg 51%
    08:00 +18°C° 0 mm 3 mps 761 mmHg 48%
    09:00 +20°C° 0 mm 3 mps 761 mmHg 45%
    10:00 +24°C° 0 mm 3 mps 761 mmHg 42%
    11:00 +25°C° 0 mm 3 mps 760 mmHg 37%
    12:00 +27°C° 0 mm 3 mps 760 mmHg 31%
    13:00 +28°C° 0 mm 2 mps 759 mmHg 26%
    14:00 +29°C° 0 mm 2 mps 759 mmHg 25%
    15:00 +29°C° 0 mm 2 mps 758 mmHg 23%
    16:00 +29°C° 0 mm 2 mps 757 mmHg 22%
    17:00 +27°C° 0 mm 3 mps 758 mmHg 31%
    18:00 +24°C° 0 mm 3 mps 758 mmHg 40%
    19:00 +21°C° 0 mm 3 mps 758 mmHg 49%
    20:00 +20°C° 0 mm 3 mps 758 mmHg 58%
    21:00 +19°C° 0 mm 3 mps 759 mmHg 67%
    22:00 +17°C° 0 mm 3 mps 759 mmHg 76%
    23:00 +17°C° 0 mm 2 mps 758 mmHg 79%

    29 March, Friday

    Time Temperature Precipitation Wind Pressure Humidity
    00:00 +16°C° 0 mm 1 mps 758 mmHg 82%
    01:00 +16°C° 0 mm 1 mps 757 mmHg 85%
    02:00 +16°C° 0 mm 1 mps 757 mmHg 84%
    03:00 +15°C° 0 mm 1 mps 756 mmHg 84%
    04:00 +15°C° 0 mm 1 mps 756 mmHg 83%
    05:00 +15°C° 0 mm 1 mps 756 mmHg 78%
    06:00 +16°C° 0 mm 1 mps 756 mmHg 72%
    07:00 +16°C° 0 mm 2 mps 755 mmHg 67%
    08:00 +18°C° 0 mm 2 mps 755 mmHg 58%
    09:00 +20°C° 0 mm 2 mps 755 mmHg 49%
    10:00 +24°C° 0 mm 3 mps 755 mmHg 40%
    11:00 +25°C° 0 mm 4 mps 754 mmHg 35%
    12:00 +27°C° 0 mm 4 mps 753 mmHg 30%
    13:00 +28°C° 0 mm 5 mps 753 mmHg 25%
    14:00 +26°C° 0 mm 6 mps 753 mmHg 34%
    15:00 +23°C° 0 mm 6 mps 753 mmHg 44%
    16:00 +21°C° 0 mm 7 mps 752 mmHg 53%
    17:00 +20°C° 0 mm 7 mps 753 mmHg 51%
    18:00 +18°C° 0 mm 7 mps 754 mmHg 49%
    19:00 +17°C° 0 mm 7 mps 754 mmHg 46%
    20:00 +16°C° 0 mm 6 mps 755 mmHg 49%
    21:00 +14°C° 0 mm 6 mps 755 mmHg 52%
    22:00 +13°C° 0 mm 5 mps 756 mmHg 55%
    23:00 +13°C° 0 mm 5 mps 756 mmHg 54%

    30 March, Saturday

    Time Temperature Precipitation Wind Pressure Humidity
    00:00 +12°C° 0 mm 5 mps 755 mmHg 54%
    01:00 +12°C° 0 mm 5 mps 755 mmHg 53%
    02:00 +10°C° 0 mm 5 mps 755 mmHg 55%
    03:00 +10°C° 0 mm 5 mps 755 mmHg 58%
    04:00 +9°C° 0 mm 5 mps 756 mmHg 60%
    05:00 +9°C° 0 mm 5 mps 756 mmHg 61%
    06:00 +9°C° 0 mm 5 mps 756 mmHg 62%
    07:00 +8°C° 0 mm 5 mps 757 mmHg 63%
    08:00 +9°C° 0.1 mm 5 mps 757 mmHg 57%
    09:00 +11°C° 0.1 mm 6 mps 757 mmHg 52%
    10:00 +13°C° 0.1 mm 6 mps 757 mmHg 46%
    11:00 +13°C° 0.3 mm 6 mps 757 mmHg 44%
    12:00 +14°C° 0.3 mm 7 mps 757 mmHg 41%
    13:00 +14°C° 0.3 mm 7 mps 757 mmHg 39%
    14:00 +14°C° 0.3 mm 7 mps 757 mmHg 40%
    15:00 +14°C° 0.3 mm 7 mps 757 mmHg 41%
    16:00 +14°C° 0.3 mm 7 mps 757 mmHg 42%
    17:00 +13°C° 0.2 mm 6 mps 758 mmHg 46%
    18:00 +11°C° 0.2 mm 6 mps 759 mmHg 50%
    19:00 +10°C° 0.2 mm 5 mps 759 mmHg 54%
    20:00 +9°C° 0.1 mm 5 mps 760 mmHg 56%
    21:00 +9°C° 0.1 mm 5 mps 760 mmHg 59%
    22:00 +10°C° 0.1 mm 4 mps 761 mmHg 61%
    23:00 +10°C° 0 mm 4 mps 761 mmHg 62%
    Show more